Location: Mountain Lakes
(44.1215°N, 71.9554°W)
Time: 04:32:14
(UTC+00:00)

SPOT 1/Viking Rocket - Pass Details

Date: 08 September 2024
Orbit: 773 x 791 km, 98.3° (Epoch: 11 October)

Event Time Altitude Azimuth Distance (km) Brightness Sun altitude
Rises 23:41:08 0° 156° (SSE) 3,272 6.4 -6.3°
Reaches altitude 10° 23:43:28 10° 153° (SSE) 2,345 5.6 -6.7°
Maximum altitude 23:48:35 65° 73° (ENE) 864 3.6 -7.6°
Drops below altitude 10° 23:53:43 10° 352° (N) 2,349 6.3 -8.5°
Sets 23:56:03 0° 350° (N) 3,279 7.1 -8.9°
